CW9676 Weather Reports


time (UTC)temp
F
wind
direction
speed
knots
gust
knots
rain 1hr
in
rain 24hr
in
rain mn
in
humidity
%
barometer
mb
20260510094754 66 230 3.5 8.7 0.00 0.00 0.00 21 1003.6
20260510092533 67 246 6.1 11.3 0.00 0.00 0.00 20 1003.6
20260510091539 67 249 7.0 11.3 0.00 0.00 0.00 20 1003.5
20260510090517 67 238 5.2 9.6 0.00 0.00 0.00 21 1003.5
20260510085454 67 230 3.5 8.7 0.00 0.00 0.00 21 1003.5
20260510084512 67 230 4.3 8.7 0.00 0.00 0.00 20 1003.5
20260510083528 68 242 7.0 13.0 0.00 0.00 0.00 20 1003.5
20260510082535 68 225 7.0 13.0 0.00 0.00 0.00 20 1003.4
20260510080342 69 244 7.8 13.0 0.00 0.00 0.00 20 1003.6
20260510075403 69 231 9.6 16.5 0.00 0.00 0.00 19 1003.5
20260510074340 69 246 9.6 16.5 0.00 0.00 0.00 19 1003.5
20260510073336 68 246 8.7 16.5 0.00 0.00 0.00 20 1003.5
20260510071240 68 252 6.1 12.2 0.00 0.00 0.00 20 1003.8
20260510070211 68 223 6.1 12.2 0.00 0.00 0.00 20 1003.7
20260510065155 69 226 7.0 11.3 0.00 0.00 0.00 20 1003.8
20260510064148 69 232 6.1 11.3 0.00 0.00 0.00 20 1003.8
20260510063151 69 236 6.1 16.5 0.00 0.00 0.00 19 1003.7
20260510062155 69 184 7.0 16.5 0.00 0.00 0.00 19 1003.8
20260510061150 70 234 7.8 13.9 0.00 0.00 0.00 19 1003.7
20260510060128 70 228 7.8 15.6 0.00 0.00 0.00 19 1003.6
20260510055152 70 195 7.8 15.6 0.00 0.00 0.00 18 1003.6
20260510054158 71 228 9.6 15.6 0.00 0.00 0.00 18 1003.6
20260510053157 71 223 9.6 17.4 0.00 0.00 0.00 18 1003.4
20260510052123 71 223 8.7 17.4 0.00 0.00 0.00 18 1003.5
20260510051143 71 236 8.7 15.6 0.00 0.00 0.00 18 1003.5
20260510044942 71 253 7.0 14.8 0.00 0.00 0.00 18 1003.4
20260510043943 71 222 6.1 11.3 0.00 0.00 0.00 17 1003.4
20260510042909 71 214 6.1 11.3 0.00 0.00 0.00 17 1003.2
20260510041910 71 227 6.1 10.4 0.00 0.00 0.00 16 1003.2
20260510040934 71 231 6.1 11.3 0.00 0.00 0.00 16 1003.1
20260510034807 71 217 6.1 10.4 0.00 0.00 0.00 16 1002.8
20260510033806 71 233 4.3 8.7 0.00 0.00 0.00 16 1002.8
20260510032734 71 240 4.3 8.7 0.00 0.00 0.00 16 1002.5
20260510031711 72 229 4.3 7.8 0.00 0.00 0.00 16 1002.5
20260510025532 73 223 5.2 10.4 0.00 0.00 0.00 15 1002.1
20260510024507 73 227 6.1 12.2 0.00 0.00 0.00 15 1001.9
20260510023527 74 4 6.1 13.0 0.00 0.00 0.00 14 1001.8
20260510021350 75 200 7.8 12.2 0.00 0.00 0.00 14 1001.4
20260510020358 76 173 7.8 14.8 0.00 0.00 0.00 13 1001.3
20260510015335 77 162 9.6 14.8 0.00 0.00 0.00 13 1001.2
20260510014316 77 233 10.4 20.0 0.00 0.00 0.00 13 1001.1
20260510013324 78 4 10.4 20.0 0.00 0.00 0.00 12 1001.0
20260510012341 79 173 12.2 21.7 0.00 0.00 0.00 12 1000.9
20260510010222 80 211 12.2 20.9 0.00 0.00 0.00 12 1000.9
20260510005216 81 214 11.3 19.1 0.00 0.00 0.00 12 1000.8
20260510004208 81 186 11.3 20.9 0.00 0.00 0.00 12 1000.8
20260510003212 81 167 13.0 20.9 0.00 0.00 0.00 12 1000.8
20260510002233 82 179 10.4 23.5 0.00 0.00 0.00 12 1000.8
20260510001212 83 165 11.3 23.5 0.00 0.00 0.00 11 1000.6
20260509235020 83 157 11.3 21.7 0.00 0.00 0.00 12 1000.6
20260509233954 83 182 13.0 21.7 0.00 0.00 0.00 12 1000.6
20260509232949 85 168 8.7 21.7 0.00 0.00 0.00 12 1000.6
20260509231920 83 148 11.3 21.7 0.00 0.00 0.00 12 1000.8
20260509230926 84 212 10.4 18.2 0.00 0.00 0.00 12 1000.8
20260509224828 86 200 7.8 27.8 0.00 0.00 0.00 11 1001.1
20260509223821 84 153 11.3 27.8 0.00 0.00 0.00 11 1001.2
20260509222750 85 105 7.8 16.5 0.00 0.00 0.00 12 1001.1
20260509221740 83 142 8.7 20.9 0.00 0.00 0.00 12 1001.6
20260509215650 84 194 9.6 18.2 0.00 0.00 0.00 12 1001.8
20260509214708 85 174 8.7 15.6 0.00 0.00 0.00 12 1002.2
20260509210253 84 198 7.8 15.6 0.00 0.00 0.00 12 1002.8
20260509205251 84 76 7.8 19.1 0.00 0.00 0.00 12 1003.2
20260509203159 84 134 6.1 14.8 0.00 0.00 0.00 12 1003.4
20260509202135 84 223 7.0 14.8 0.00 0.00 0.00 12 1003.5
20260509201147 84 91 4.3 13.9 0.00 0.00 0.00 12 1003.6
20260509200130 84 134 6.1 14.8 0.00 0.00 0.00 12 1003.8
20260509195122 83 160 7.0 16.5 0.00 0.00 0.00 11 1004.1
20260509194122 83 209 7.8 16.5 0.00 0.00 0.00 11 1004.1
20260509193123 83 253 7.0 13.9 0.00 0.00 0.00 11 1004.1
20260509192130 83 238 6.1 13.9 0.00 0.00 0.00 12 1004.3
20260509190007 82 207 8.7 17.4 0.00 0.00 0.00 12 1004.5
20260509183836 81 244 8.7 14.8 0.00 0.00 0.00 13 1004.6
20260509181727 82 205 6.1 13.9 0.00 0.00 0.00 15 1004.8
20260509180735 81 235 7.0 13.9 0.00 0.00 0.00 14 1004.8
20260509175758 81 217 6.1 13.9 0.00 0.00 0.00 15 1005.0
20260509174815 81 206 6.1 12.2 0.00 0.00 0.00 16 1005.0
20260509173756 79 172 6.1 12.2 0.00 0.00 0.00 16 1005.2
20260509170441 77 150 6.1 13.9 0.00 0.00 0.00 18 1005.3
20260509165411 77 209 7.8 13.9 0.00 0.00 0.00 18 1005.3
20260509163153 76 199 6.1 12.2 0.00 0.00 0.00 19 1005.3
20260509162141 76 235 4.3 10.4 0.00 0.00 0.00 19 1005.3
20260509161144 74 190 6.1 11.3 0.00 0.00 0.00 20 1005.4
20260509160157 74 209 6.1 11.3 0.00 0.00 0.00 21 1005.5
20260509155141 73 195 6.1 11.3 0.00 0.00 0.00 21 1005.5
20260509154116 72 204 6.1 11.3 0.00 0.00 0.00 22 1005.5
20260509153106 71 155 6.1 10.4 0.00 0.00 0.00 23 1005.4
20260509152126 70 203 6.1 9.6 0.00 0.00 0.00 23 1005.4
20260509151105 70 213 5.2 9.6 0.00 0.00 0.00 24 1005.5
20260509150127 69 182 6.1 10.4 0.00 0.00 0.00 25 1005.4
20260509145104 69 192 5.2 13.0 0.00 0.00 0.00 25 1005.5
20260509142949 69 193 5.2 11.3 0.00 0.00 0.00 24 1005.4
20260509141938 69 169 3.5 9.6 0.00 0.00 0.00 24 1005.3
20260509135746 68 227 5.2 9.6 0.00 0.00 0.00 25 1005.3
20260509133613 66 230 7.0 11.3 0.00 0.00 0.00 26 1005.3
20260509132638 65 219 6.1 11.3 0.00 0.00 0.00 27 1005.2
20260509131642 64 221 7.0 10.4 0.00 0.00 0.00 28 1005.1
20260509130656 63 246 7.0 10.4 0.00 0.00 0.00 29 1005.1
20260509125651 62 236 5.2 9.6 0.00 0.00 0.00 29 1005.1
20260509124705 62 197 5.2 9.6 0.00 0.00 0.00 29 1004.9
20260509123641 62 190 5.2 9.6 0.00 0.00 0.00 30 1004.8
20260509122629 61 229 5.2 9.6 0.00 0.00 0.00 29 1004.7
20260509121602 61 226 6.1 11.3 0.00 0.00 0.00 29 1004.6
20260509120620 61 215 6.1 11.3 0.00 0.00 0.00 29 1004.5
20260509115605 62 200 6.1 10.4 0.00 0.00 0.00 29 1004.3
20260509114541 62 242 6.1 10.4 0.00 0.00 0.00 29 1004.3
20260509113541 62 229 6.1 10.4 0.00 0.00 0.00 29 1004.3
20260509112528 62 218 5.2 10.4 0.00 0.00 0.00 29 1004.4
20260509111544 62 199 5.2 10.4 0.00 0.00 0.00 29 1004.3
20260509105423 62 227 7.0 11.3 0.00 0.00 0.00 28 1004.4
20260509104403 62 211 6.1 11.3 0.00 0.00 0.00 28 1004.3
20260509103405 63 241 7.0 13.0 0.00 0.00 0.00 28 1004.3
20260509102427 63 224 6.1 13.0 0.00 0.00 0.00 28 1004.3
20260509101415 63 213 7.0 12.2 0.00 0.00 0.00 28 1004.3
20260509100340 63 204 8.7 13.0 0.00 0.00 0.00 27 1004.2